Kazarman

Kyrgyzstan     41˚24′19″N   74˚02′06″E
temp.,
°C
wind,
m/s
gust,
m/s
humid.,
%
clouds,
%
prec.,
mm/h
press.,
hPa
HPBL,
m
28 november, sat
sat2800:00−4˚ese0159100 0.0 102323
03:00−5˚sw0171100 0.0 102321
06:00−4˚sw1257100 0.1 102523
09:00−2˚sw4772100 0.1 1029262
12:00−3˚ssw4680100 0.8 1035469
15:00−2˚ssw466693 0.4 1037887
18:00−6˚ssw238588 0.5 104041
21:00−9˚ssw128683 0.0 104227
29 november, sun
sun2900:00−10˚sse128654 0.0 104222
03:00−12˚w01860 0.0 104121
06:00−12˚nnw12800 0.0 104321
09:00−10˚n12760 0.0 104326
12:00−4˚nnw11540 0.0 1040510
15:00−2˚nw12450 0.0 1037665
18:00−7˚n23720 0.0 104028
21:00−9˚n23690 0.0 104024
30 november, mon
mon3000:00−10˚nne23680 0.0 103922
03:00−11˚nne23700 0.0 103821
06:00−12˚ne23710 0.0 103822
09:00−11˚nne12650 0.0 103824
12:00−5˚s11430 0.0 1035509
15:00−3˚s12350 0.0 1032505
18:00−8˚ene12594 0.0 103324
21:00−10˚ene126284 0.0 103326
1 december, tue
tue100:00−11˚ene126491 0.0 103127
03:00−11˚ene116092 0.0 102927
06:00−10˚se125496 0.0 102726
09:00−8˚ese1244100 0.1 102757
12:00−5˚s1129100 0.2 1027338
15:00−3˚ssw1239100 0.0 1027382
18:00−5˚s1267100 0.1 102925
21:00−6˚ese1265100 0.0 103025
2 december, wed
wed200:00−8˚e117792 0.1 103123
03:00−8˚ese128993 0.1 103125
06:00−8˚ese129297 0.3 103125
09:00−6˚e128698 0.1 103164
12:00−3˚s127099 0.1 1029364
15:00−1˚sse1265100 0.0 1027372
18:00−5˚sse1285100 0.0 102821
21:00−5˚e228299 0.0 102926